Time,TemperatureF,DewpointF,PressureIn,WindDirection,WindDirectionDegrees,WindSpeedMPH,WindSpeedGustMPH,Humidity,HourlyPrecipIn,Conditions,Clouds,dailyrainin,SoftwareType,DateUTC
2013-01-21 00:00:00,33.7,-0.2,30.00,West,270,3.0,3.0,23,0.00,,,0.00,Wunderground v.1.15,2013-01-21 07:00:00,
2013-01-21 00:10:00,33.7,-0.2,30.00,SSW,206,3.0,3.0,23,0.00,,,0.00,Wunderground v.1.15,2013-01-21 07:10:00,
2013-01-21 00:15:00,33.5,0.5,30.00,WNW,296,4.0,4.0,24,0.00,,,0.00,Wunderground v.1.15,2013-01-21 07:15:00,
2013-01-21 00:25:00,33.8,-0.2,30.00,SSW,192,3.0,3.0,23,0.00,,,0.00,Wunderground v.1.15,2013-01-21 07:25:00,
2013-01-21 00:31:00,33.7,-0.2,30.00,West,267,3.0,3.0,23,0.00,,,0.00,Wunderground v.1.15,2013-01-21 07:31:00,
2013-01-21 00:40:00,33.8,-0.2,30.00,WNW,287,3.0,5.0,23,0.00,,,0.00,Wunderground v.1.15,2013-01-21 07:40:00,
2013-01-21 00:45:00,33.8,-0.2,30.00,South,181,2.0,5.0,23,0.00,,,0.00,Wunderground v.1.15,2013-01-21 07:45:00,
2013-01-21 00:55:00,33.8,-0.2,30.00,SSW,193,2.0,4.0,23,0.00,,,0.00,Wunderground v.1.15,2013-01-21 07:55:00,
2013-01-21 01:01:00,34.0,0.0,30.00,West,280,4.0,4.0,23,0.00,,,0.00,Wunderground v.1.15,2013-01-21 08:01:00,
2013-01-21 01:10:00,34.0,0.0,30.00,NW,312,3.0,3.0,23,0.00,,,0.00,Wunderground v.1.15,2013-01-21 08:10:00,
2013-01-21 01:15:00,33.8,-0.2,30.00,West,272,3.0,3.0,23,0.00,,,0.00,Wunderground v.1.15,2013-01-21 08:15:00,
2013-01-21 01:25:00,33.7,-0.2,30.00,SSW,205,3.0,3.0,23,0.00,,,0.00,Wunderground v.1.15,2013-01-21 08:25:00,
2013-01-21 01:30:00,33.7,0.7,30.00,South,182,3.0,3.0,24,0.00,,,0.00,Wunderground v.1.15,2013-01-21 08:30:00,
2013-01-21 01:40:00,33.7,0.7,30.00,WNW,292,4.0,4.0,24,0.00,,,0.00,Wunderground v.1.15,2013-01-21 08:40:00,
2013-01-21 01:45:00,33.5,0.5,30.01,SW,227,4.0,12.0,24,0.00,,,0.00,Wunderground v.1.15,2013-01-21 08:45:00,
2013-01-21 01:55:00,33.5,0.5,30.01,NW,304,4.0,4.0,24,0.00,,,0.00,Wunderground v.1.15,2013-01-21 08:55:00,
2013-01-21 02:00:00,33.4,0.4,30.00,SSW,198,2.0,2.0,24,0.00,,,0.00,Wunderground v.1.15,2013-01-21 09:00:00,
2013-01-21 02:10:00,33.4,0.4,30.00,West,281,3.0,6.0,24,0.00,,,0.00,Wunderground v.1.15,2013-01-21 09:10:00,
2013-01-21 02:15:00,33.4,0.4,30.02,SW,217,3.0,6.0,24,0.00,,,0.00,Wunderground v.1.15,2013-01-21 09:15:00,
2013-01-21 02:25:00,33.1,0.2,30.02,South,176,2.0,3.0,24,0.00,,,0.00,Wunderground v.1.15,2013-01-21 09:25:00,
2013-01-21 02:30:00,32.9,0.9,30.01,West,280,3.0,3.0,25,0.00,,,0.00,Wunderground v.1.15,2013-01-21 09:30:00,
2013-01-21 02:40:00,32.9,0.0,30.01,West,278,3.0,3.0,24,0.00,,,0.00,Wunderground v.1.15,2013-01-21 09:40:00,
2013-01-21 02:45:00,33.1,1.0,30.00,West,263,3.0,3.0,25,0.00,,,0.00,Wunderground v.1.15,2013-01-21 09:45:00,
2013-01-21 02:55:00,33.2,0.2,30.00,WNW,289,3.0,6.0,24,0.00,,,0.00,Wunderground v.1.15,2013-01-21 09:55:00,
2013-01-21 03:00:00,33.2,0.2,30.00,SSW,203,2.0,3.0,24,0.00,,,0.00,Wunderground v.1.15,2013-01-21 10:00:00,
2013-01-21 03:10:00,33.4,0.4,30.00,SSW,195,3.0,3.0,24,0.00,,,0.00,Wunderground v.1.15,2013-01-21 10:10:00,
2013-01-21 03:15:00,33.2,0.2,30.00,SSW,193,2.0,3.0,24,0.00,,,0.00,Wunderground v.1.15,2013-01-21 10:15:00,
2013-01-21 03:25:00,33.7,0.7,30.00,South,185,3.0,6.0,24,0.00,,,0.00,Wunderground v.1.15,2013-01-21 10:25:00,
2013-01-21 03:30:00,33.8,0.8,30.01,WNW,284,2.0,2.0,24,0.00,,,0.00,Wunderground v.1.15,2013-01-21 10:30:00,
2013-01-21 03:40:00,34.0,0.9,30.01,WNW,288,2.0,5.0,24,0.00,,,0.00,Wunderground v.1.15,2013-01-21 10:40:00,
2013-01-21 03:45:00,33.8,0.8,30.01,WSW,248,2.0,5.0,24,0.00,,,0.00,Wunderground v.1.15,2013-01-21 10:45:00,
2013-01-21 03:55:00,33.8,0.8,30.01,SSW,200,2.0,2.0,24,0.00,,,0.00,Wunderground v.1.15,2013-01-21 10:55:00,
2013-01-21 04:00:00,33.7,1.5,30.01,SSW,193,2.0,2.0,25,0.00,,,0.00,Wunderground v.1.15,2013-01-21 11:00:00,
2013-01-21 04:10:00,33.5,1.4,30.01,West,264,1.0,2.0,25,0.00,,,0.00,Wunderground v.1.15,2013-01-21 11:10:00,
2013-01-21 04:15:00,33.7,1.5,30.02,West,268,1.0,2.0,25,0.00,,,0.00,Wunderground v.1.15,2013-01-21 11:15:00,
2013-01-21 04:25:00,33.4,1.3,30.02,NW,305,1.0,3.0,25,0.00,,,0.00,Wunderground v.1.15,2013-01-21 11:25:00,
2013-01-21 04:30:00,33.1,1.0,30.04,South,184,2.0,2.0,25,0.00,,,0.00,Wunderground v.1.15,2013-01-21 11:30:00,
2013-01-21 04:40:00,32.8,0.8,30.04,North,8,1.0,2.0,25,0.00,,,0.00,Wunderground v.1.15,2013-01-21 11:40:00,
2013-01-21 04:50:00,32.5,0.5,30.04,WNW,282,0.0,0.0,25,0.00,,,0.00,Wunderground v.1.15,2013-01-21 11:50:00,
2013-01-21 05:00:00,32.5,0.5,30.04,North,0,1.0,1.0,25,0.00,,,0.00,Wunderground v.1.15,2013-01-21 12:00:00,
2013-01-21 05:10:00,31.9,0.8,30.04,NW,326,0.0,2.0,26,0.00,,,0.00,Wunderground v.1.15,2013-01-21 12:10:00,
2013-01-21 05:15:00,31.9,0.0,30.04,NW,320,0.0,2.0,25,0.00,,,0.00,Wunderground v.1.15,2013-01-21 12:15:00,
2013-01-21 05:25:00,32.5,0.5,30.04,WSW,251,1.0,2.0,25,0.00,,,0.00,Wunderground v.1.15,2013-01-21 12:25:00,
2013-01-21 05:30:00,32.9,0.9,30.05,West,278,4.0,10.0,25,0.00,,,0.00,Wunderground v.1.15,2013-01-21 12:30:00,
2013-01-21 05:40:00,32.8,0.8,30.05,NW,305,4.0,4.0,25,0.00,,,0.00,Wunderground v.1.15,2013-01-21 12:40:00,
2013-01-21 05:45:00,32.7,0.7,30.04,WNW,288,5.0,5.0,25,0.00,,,0.00,Wunderground v.1.15,2013-01-21 12:45:00,
2013-01-21 05:55:00,32.4,1.3,30.04,SW,229,5.0,5.0,26,0.00,,,0.00,Wunderground v.1.15,2013-01-21 12:55:00,
2013-01-21 06:00:00,32.5,0.5,30.05,SSW,192,4.0,4.0,25,0.00,,,0.00,Wunderground v.1.15,2013-01-21 13:00:00,
2013-01-21 06:10:00,32.4,1.3,30.05,NW,305,5.0,7.0,26,0.00,,,0.00,Wunderground v.1.15,2013-01-21 13:10:00,
2013-01-21 06:15:00,32.4,1.3,30.06,SSW,195,3.0,7.0,26,0.00,,,0.00,Wunderground v.1.15,2013-01-21 13:15:00,
2013-01-21 06:25:00,32.2,1.9,30.06,WNW,292,2.0,18.0,27,0.00,,,0.00,Wunderground v.1.15,2013-01-21 13:25:00,
2013-01-21 06:30:00,32.2,1.1,30.05,WSW,247,5.0,6.0,26,0.00,,,0.00,Wunderground v.1.15,2013-01-21 13:30:00,
2013-01-21 06:40:00,32.2,1.9,30.05,SSW,209,4.0,4.0,27,0.00,,,0.00,Wunderground v.1.15,2013-01-21 13:40:00,
2013-01-21 06:45:00,32.4,2.1,30.05,SE,141,5.0,5.0,27,0.00,,,0.00,Wunderground v.1.15,2013-01-21 13:45:00,
2013-01-21 06:55:00,32.7,2.3,30.05,SW,215,5.0,11.0,27,0.00,,,0.00,Wunderground v.1.15,2013-01-21 13:55:00,
2013-01-21 07:00:00,32.8,3.2,30.05,South,186,5.0,5.0,28,0.00,,,0.00,Wunderground v.1.15,2013-01-21 14:00:00,
2013-01-21 07:10:00,32.9,3.3,30.05,SSW,195,4.0,4.0,28,0.00,,,0.00,Wunderground v.1.15,2013-01-21 14:10:00,
2013-01-21 07:15:00,33.1,3.5,30.06,SSW,209,4.0,4.0,28,0.00,,,0.00,Wunderground v.1.15,2013-01-21 14:15:00,
2013-01-21 07:25:00,33.2,3.6,30.06,SW,236,5.0,5.0,28,0.00,,,0.00,Wunderground v.1.15,2013-01-21 14:25:00,
2013-01-21 07:30:00,33.2,3.6,30.09,WSW,257,5.0,7.0,28,0.00,,,0.00,Wunderground v.1.15,2013-01-21 14:30:00,
2013-01-21 07:40:00,33.2,3.6,30.09,WNW,301,5.0,10.0,28,0.00,,,0.00,Wunderground v.1.15,2013-01-21 14:40:00,
2013-01-21 07:45:00,33.2,2.8,30.09,SW,220,5.0,10.0,27,0.00,,,0.00,Wunderground v.1.15,2013-01-21 14:45:00,
2013-01-21 07:55:00,33.4,2.9,30.09,West,280,6.0,7.0,27,0.00,,,0.00,Wunderground v.1.15,2013-01-21 14:55:00,
2013-01-21 08:00:00,33.5,3.0,30.08,SW,227,7.0,7.0,27,0.00,,,0.00,Wunderground v.1.15,2013-01-21 15:00:00,
2013-01-21 08:10:00,33.8,2.5,30.08,SE,137,10.0,10.0,26,0.00,,,0.00,Wunderground v.1.15,2013-01-21 15:10:00,
2013-01-21 08:15:00,33.7,2.4,30.06,WNW,282,11.0,11.0,26,0.00,,,0.00,Wunderground v.1.15,2013-01-21 15:15:00,
2013-01-21 08:25:00,33.5,3.0,30.06,SSW,195,6.0,8.0,27,0.00,,,0.00,Wunderground v.1.15,2013-01-21 15:25:00,
2013-01-21 08:30:00,33.5,3.0,30.12,SSE,168,7.0,7.0,27,0.00,,,0.00,Wunderground v.1.15,2013-01-21 15:30:00,
2013-01-21 08:40:00,33.5,3.0,30.12,SSW,199,6.0,6.0,27,0.00,,,0.00,Wunderground v.1.15,2013-01-21 15:40:00,
2013-01-21 08:45:00,33.4,2.1,30.15,WNW,287,6.0,7.0,26,0.00,,,0.00,Wunderground v.1.15,2013-01-21 15:45:00,
2013-01-21 08:55:00,33.5,2.2,30.15,WNW,301,6.0,10.0,26,0.00,,,0.00,Wunderground v.1.15,2013-01-21 15:55:00,
2013-01-21 09:00:00,33.7,2.4,30.13,WNW,285,7.0,11.0,26,0.00,,,0.00,Wunderground v.1.15,2013-01-21 16:00:00,
2013-01-21 09:10:00,34.0,2.6,30.13,WNW,302,6.0,6.0,26,0.00,,,0.00,Wunderground v.1.15,2013-01-21 16:10:00,
2013-01-21 09:15:00,34.1,2.7,30.12,WNW,291,7.0,7.0,26,0.00,,,0.00,Wunderground v.1.15,2013-01-21 16:15:00,
2013-01-21 09:25:00,34.4,2.1,30.12,WNW,289,10.0,14.0,25,0.00,,,0.00,Wunderground v.1.15,2013-01-21 16:25:00,
2013-01-21 09:30:00,34.6,3.2,30.04,West,277,9.0,10.0,26,0.00,,,0.00,Wunderground v.1.15,2013-01-21 16:30:00,
2013-01-21 09:40:00,34.3,2.9,30.04,SW,227,9.0,9.0,26,0.00,,,0.00,Wunderground v.1.15,2013-01-21 16:40:00,
2013-01-21 09:45:00,34.4,3.0,30.05,WNW,299,8.0,9.0,26,0.00,,,0.00,Wunderground v.1.15,2013-01-21 16:45:00,
2013-01-21 09:55:00,34.7,3.2,30.05,SSW,203,8.0,11.0,26,0.00,,,0.00,Wunderground v.1.15,2013-01-21 16:55:00,
2013-01-21 10:00:00,34.9,3.4,30.07,WSW,243,6.0,6.0,26,0.00,,,0.00,Wunderground v.1.15,2013-01-21 17:00:00,
2013-01-21 10:10:00,34.9,3.4,30.07,WNW,292,6.0,10.0,26,0.00,,,0.00,Wunderground v.1.15,2013-01-21 17:10:00,
2013-01-21 10:15:00,35.3,3.8,30.08,SSE,152,6.0,10.0,26,0.00,,,0.00,Wunderground v.1.15,2013-01-21 17:15:00,
2013-01-21 10:25:00,35.9,4.3,30.08,SSE,164,4.0,4.0,26,0.00,,,0.00,Wunderground v.1.15,2013-01-21 17:25:00,
2013-01-21 10:30:00,36.2,3.7,30.06,WSW,248,5.0,5.0,25,0.00,,,0.00,Wunderground v.1.15,2013-01-21 17:30:00,
2013-01-21 10:40:00,36.6,3.1,30.06,SSW,198,4.0,4.0,24,0.00,,,0.00,Wunderground v.1.15,2013-01-21 17:40:00,
2013-01-21 10:45:00,37.0,3.5,30.06,SSW,203,4.0,4.0,24,0.00,,,0.00,Wunderground v.1.15,2013-01-21 17:45:00,
2013-01-21 10:55:00,36.9,3.4,30.06,SSW,209,4.0,5.0,24,0.00,,,0.00,Wunderground v.1.15,2013-01-21 17:55:00,
2013-01-21 11:00:00,37.0,4.4,30.05,NW,315,6.0,11.0,25,0.00,,,0.00,Wunderground v.1.15,2013-01-21 18:00:00,
2013-01-21 11:10:00,38.0,4.3,30.05,SW,227,5.0,8.0,24,0.00,,,0.00,Wunderground v.1.15,2013-01-21 18:10:00,
2013-01-21 11:15:00,38.2,3.6,30.02,SE,126,6.0,8.0,23,0.00,,,0.00,Wunderground v.1.15,2013-01-21 18:15:00,
2013-01-21 11:25:00,38.0,4.3,30.02,WNW,285,7.0,7.0,24,0.00,,,0.00,Wunderground v.1.15,2013-01-21 18:25:00,
2013-01-21 11:30:00,37.9,4.3,30.03,West,267,7.0,7.0,24,0.00,,,0.00,Wunderground v.1.15,2013-01-21 18:30:00,
2013-01-21 11:40:00,38.5,4.8,30.03,WNW,285,7.0,7.0,24,0.00,,,0.00,Wunderground v.1.15,2013-01-21 18:40:00,
2013-01-21 11:45:00,38.5,3.8,30.02,South,178,7.0,7.0,23,0.00,,,0.00,Wunderground v.1.15,2013-01-21 18:45:00,
2013-01-21 11:55:00,38.3,3.7,30.02,South,174,8.0,8.0,23,0.00,,,0.00,Wunderground v.1.15,2013-01-21 18:55:00,
2013-01-21 12:00:00,38.8,4.1,30.01,West,274,6.0,7.0,23,0.00,,,0.00,Wunderground v.1.15,2013-01-21 19:00:00,
2013-01-21 12:10:00,38.9,4.2,30.01,West,267,7.0,7.0,23,0.00,,,0.00,Wunderground v.1.15,2013-01-21 19:10:00,
2013-01-21 12:15:00,39.1,3.4,30.00,South,186,6.0,7.0,22,0.00,,,0.00,Wunderground v.1.15,2013-01-21 19:15:00,
2013-01-21 12:25:00,39.1,3.4,30.00,NNW,328,7.0,12.0,22,0.00,,,0.00,Wunderground v.1.15,2013-01-21 19:25:00,
2013-01-21 12:30:00,39.1,3.4,29.99,East,93,7.0,7.0,22,0.00,,,0.00,Wunderground v.1.15,2013-01-21 19:30:00,
2013-01-21 12:40:00,39.2,4.4,29.99,NW,304,5.0,19.0,23,0.00,,,0.00,Wunderground v.1.15,2013-01-21 19:40:00,
2013-01-21 12:45:00,39.5,3.7,30.00,SW,220,5.0,19.0,22,0.00,,,0.00,Wunderground v.1.15,2013-01-21 19:45:00,
2013-01-21 12:55:00,39.2,4.4,30.00,South,178,8.0,8.0,23,0.00,,,0.00,Wunderground v.1.15,2013-01-21 19:55:00,
2013-01-21 13:00:00,39.1,4.4,30.00,WSW,256,5.0,5.0,23,0.00,,,0.00,Wunderground v.1.15,2013-01-21 20:00:00,
2013-01-21 13:10:00,39.5,4.7,30.00,SSW,210,3.0,3.0,23,0.00,,,0.00,Wunderground v.1.15,2013-01-21 20:10:00,
2013-01-21 13:15:00,39.6,4.8,30.00,SSW,208,3.0,3.0,23,0.00,,,0.00,Wunderground v.1.15,2013-01-21 20:15:00,
2013-01-21 13:25:00,39.8,4.0,30.00,NW,313,3.0,3.0,22,0.00,,,0.00,Wunderground v.1.15,2013-01-21 20:25:00,
2013-01-21 13:30:00,39.8,4.0,29.99,WNW,285,3.0,6.0,22,0.00,,,0.00,Wunderground v.1.15,2013-01-21 20:30:00,
2013-01-21 13:40:00,40.1,4.2,29.99,WNW,285,4.0,4.0,22,0.00,,,0.00,Wunderground v.1.15,2013-01-21 20:40:00,
2013-01-21 13:45:00,40.2,4.3,29.99,SSE,162,3.0,4.0,22,0.00,,,0.00,Wunderground v.1.15,2013-01-21 20:45:00,
2013-01-21 13:55:00,40.6,4.7,29.99,WSW,244,3.0,3.0,22,0.00,,,0.00,Wunderground v.1.15,2013-01-21 20:55:00,
2013-01-21 14:00:00,40.8,3.8,29.96,SSW,203,2.0,2.0,21,0.00,,,0.00,Wunderground v.1.15,2013-01-21 21:00:00,
2013-01-21 14:10:00,41.3,3.2,29.96,SSW,196,2.0,2.0,20,0.00,,,0.00,Wunderground v.1.15,2013-01-21 21:10:00,
2013-01-21 14:15:00,41.2,3.1,29.95,South,188,4.0,4.0,20,0.00,,,0.00,Wunderground v.1.15,2013-01-21 21:15:00,
2013-01-21 14:25:00,41.6,2.3,29.95,WSW,253,5.0,5.0,19,0.00,,,0.00,Wunderground v.1.15,2013-01-21 21:25:00,
2013-01-21 14:30:00,41.8,2.5,29.94,WNW,295,4.0,7.0,19,0.00,,,0.00,Wunderground v.1.15,2013-01-21 21:30:00,
2013-01-21 14:40:00,41.6,3.4,29.94,WNW,294,5.0,5.0,20,0.00,,,0.00,Wunderground v.1.15,2013-01-21 21:40:00,
2013-01-21 14:45:00,41.5,3.3,29.95,SE,138,5.0,5.0,20,0.00,,,0.00,Wunderground v.1.15,2013-01-21 21:45:00,
2013-01-21 14:55:00,40.8,2.7,29.95,West,280,3.0,4.0,20,0.00,,,0.00,Wunderground v.1.15,2013-01-21 21:55:00,
2013-01-21 15:00:00,40.6,2.6,29.95,South,191,4.0,4.0,20,0.00,,,0.00,Wunderground v.1.15,2013-01-21 22:00:00,
2013-01-21 15:10:00,40.2,2.2,29.95,WNW,295,4.0,16.0,20,0.00,,,0.00,Wunderground v.1.15,2013-01-21 22:10:00,
2013-01-21 15:15:00,40.3,2.3,29.97,SW,222,5.0,16.0,20,0.00,,,0.00,Wunderground v.1.15,2013-01-21 22:15:00,
2013-01-21 15:25:00,40.1,1.1,29.97,NW,322,4.0,5.0,19,0.00,,,0.00,Wunderground v.1.15,2013-01-21 22:25:00,
2013-01-21 15:30:00,39.9,0.9,29.96,SSE,147,4.0,4.0,19,0.00,,,0.00,Wunderground v.1.15,2013-01-21 22:30:00,
2013-01-21 15:40:00,39.8,0.8,29.96,WNW,287,5.0,16.0,19,0.00,,,0.00,Wunderground v.1.15,2013-01-21 22:40:00,
2013-01-21 15:45:00,39.6,0.6,29.96,WSW,246,5.0,16.0,19,0.00,,,0.00,Wunderground v.1.15,2013-01-21 22:45:00,
2013-01-21 15:55:00,39.3,0.4,29.96,SSW,205,3.0,8.0,19,0.00,,,0.00,Wunderground v.1.15,2013-01-21 22:55:00,
2013-01-21 16:00:00,39.5,-0.6,29.98,SSW,198,4.0,4.0,18,0.00,,,0.00,Wunderground v.1.15,2013-01-21 23:00:00,
2013-01-21 16:10:00,39.5,-0.6,29.98,WNW,294,3.0,3.0,18,0.00,,,0.00,Wunderground v.1.15,2013-01-21 23:10:00,
2013-01-21 16:15:00,39.5,-1.8,29.97,West,281,2.0,10.0,17,0.00,,,0.00,Wunderground v.1.15,2013-01-21 23:15:00,
2013-01-21 16:25:00,39.3,-2.0,29.97,SSW,209,3.0,3.0,17,0.00,,,0.00,Wunderground v.1.15,2013-01-21 23:25:00,
2013-01-21 16:30:00,39.2,-2.1,30.00,SSW,213,4.0,5.0,17,0.00,,,0.00,Wunderground v.1.15,2013-01-21 23:30:00,
2013-01-21 16:40:00,38.9,-2.3,30.00,WSW,256,4.0,4.0,17,0.00,,,0.00,Wunderground v.1.15,2013-01-21 23:40:00,
2013-01-21 16:45:00,38.3,-2.8,30.00,WNW,302,2.0,10.0,17,0.00,,,0.00,Wunderground v.1.15,2013-01-21 23:45:00,
2013-01-21 16:55:00,38.3,-2.8,30.00,NW,323,4.0,4.0,17,0.00,,,0.00,Wunderground v.1.15,2013-01-21 23:55:00,
2013-01-21 17:00:00,38.5,-2.6,30.00,SSE,152,4.0,4.0,17,0.00,,,0.00,Wunderground v.1.15,2013-01-22 00:00:00,
2013-01-21 17:10:00,38.6,-2.5,30.00,SE,143,6.0,6.0,17,0.00,,,0.00,Wunderground v.1.15,2013-01-22 00:10:00,
2013-01-21 17:15:00,38.2,-2.9,30.00,NW,308,4.0,6.0,17,0.00,,,0.00,Wunderground v.1.15,2013-01-22 00:15:00,
2013-01-21 17:25:00,37.9,-1.9,30.00,SW,215,5.0,8.0,18,0.00,,,0.00,Wunderground v.1.15,2013-01-22 00:25:00,
2013-01-21 17:30:00,37.8,-3.2,30.00,SSW,202,6.0,6.0,17,0.00,,,0.00,Wunderground v.1.15,2013-01-22 00:30:00,
2013-01-21 17:40:00,37.9,-3.1,30.00,SW,217,5.0,5.0,17,0.00,,,0.00,Wunderground v.1.15,2013-01-22 00:40:00,
2013-01-21 17:45:00,37.8,-3.2,30.00,SSE,152,5.0,5.0,17,0.00,,,0.00,Wunderground v.1.15,2013-01-22 00:45:00,
2013-01-21 17:55:00,37.6,-3.4,30.00,West,281,4.0,14.0,17,0.00,,,0.00,Wunderground v.1.15,2013-01-22 00:55:00,
2013-01-21 18:00:00,37.9,-4.4,30.00,WNW,284,4.0,4.0,16,0.00,,,0.00,Wunderground v.1.15,2013-01-22 01:00:00,
2013-01-21 18:10:00,38.2,-4.1,30.00,South,176,6.0,6.0,16,0.00,,,0.00,Wunderground v.1.15,2013-01-22 01:10:00,
2013-01-21 18:15:00,37.8,-4.5,30.01,SW,216,4.0,6.0,16,0.00,,,0.00,Wunderground v.1.15,2013-01-22 01:15:00,
2013-01-21 18:25:00,37.3,-4.9,30.01,South,186,3.0,7.0,16,0.00,,,0.00,Wunderground v.1.15,2013-01-22 01:25:00,
2013-01-21 18:30:00,37.5,-4.7,30.00,SW,232,4.0,5.0,16,0.00,,,0.00,Wunderground v.1.15,2013-01-22 01:30:00,
2013-01-21 18:40:00,37.2,-5.0,30.00,SW,216,4.0,4.0,16,0.00,,,0.00,Wunderground v.1.15,2013-01-22 01:40:00,
2013-01-21 18:45:00,37.5,-4.7,30.00,WNW,298,4.0,10.0,16,0.00,,,0.00,Wunderground v.1.15,2013-01-22 01:45:00,
2013-01-21 18:50:00,37.3,-4.9,30.00,West,260,4.0,4.0,16,0.00,,,0.00,Wunderground v.1.15,2013-01-22 01:50:00,
2013-01-21 18:55:00,37.0,-5.1,30.00,SSW,193,3.0,11.0,16,0.00,,,0.00,Wunderground v.1.15,2013-01-22 01:55:00,
2013-01-21 19:00:00,37.2,-6.3,30.00,SW,229,3.0,3.0,15,0.00,,,0.00,Wunderground v.1.15,2013-01-22 02:00:00,
2013-01-21 19:10:00,37.6,-6.0,30.00,WSW,241,7.0,7.0,15,0.00,,,0.00,Wunderground v.1.15,2013-01-22 02:10:00,
2013-01-21 19:15:00,37.5,-6.1,29.99,North,349,7.0,7.0,15,0.00,,,0.00,Wunderground v.1.15,2013-01-22 02:15:00,
2013-01-21 19:25:00,37.2,-6.3,29.99,ESE,120,4.0,6.0,15,0.00,,,0.00,Wunderground v.1.15,2013-01-22 02:25:00,
2013-01-21 19:30:00,37.3,-6.2,30.00,West,278,3.0,6.0,15,0.00,,,0.00,Wunderground v.1.15,2013-01-22 02:30:00,
2013-01-21 19:40:00,37.5,-6.1,30.00,SSW,210,5.0,5.0,15,0.00,,,0.00,Wunderground v.1.15,2013-01-22 02:40:00,
2013-01-21 19:45:00,37.5,-6.1,29.98,SSE,151,4.0,5.0,15,0.00,,,0.00,Wunderground v.1.15,2013-01-22 02:45:00,
2013-01-21 19:55:00,37.9,-7.2,29.98,ESE,106,6.0,16.0,14,0.00,,,0.00,Wunderground v.1.15,2013-01-22 02:55:00,
2013-01-21 20:00:00,37.9,-5.7,29.99,SSW,195,6.0,6.0,15,0.00,,,0.00,Wunderground v.1.15,2013-01-22 03:00:00,
2013-01-21 20:10:00,37.5,-4.7,29.99,SE,138,3.0,8.0,16,0.00,,,0.00,Wunderground v.1.15,2013-01-22 03:10:00,
2013-01-21 20:15:00,37.5,-6.1,30.00,SSW,193,4.0,8.0,15,0.00,,,0.00,Wunderground v.1.15,2013-01-22 03:15:00,
2013-01-21 20:25:00,37.3,-4.9,30.00,SSW,199,3.0,4.0,16,0.00,,,0.00,Wunderground v.1.15,2013-01-22 03:25:00,
2013-01-21 20:30:00,37.2,-6.3,30.02,South,189,2.0,6.0,15,0.00,,,0.00,Wunderground v.1.15,2013-01-22 03:30:00,
2013-01-21 20:40:00,37.5,-6.1,30.02,SE,143,2.0,2.0,15,0.00,,,0.00,Wunderground v.1.15,2013-01-22 03:40:00,
2013-01-21 20:45:00,37.6,-6.0,30.01,WNW,291,3.0,3.0,15,0.00,,,0.00,Wunderground v.1.15,2013-01-22 03:45:00,
2013-01-21 20:55:00,37.2,-5.0,30.01,NW,326,2.0,3.0,16,0.00,,,0.00,Wunderground v.1.15,2013-01-22 03:55:00,
2013-01-21 21:00:00,37.2,-5.0,30.03,NW,320,2.0,19.0,16,0.00,,,0.00,Wunderground v.1.15,2013-01-22 04:00:00,
2013-01-21 21:10:00,37.6,-6.0,30.03,WNW,298,5.0,8.0,15,0.00,,,0.00,Wunderground v.1.15,2013-01-22 04:10:00,
2013-01-21 21:15:00,37.5,-4.7,30.01,West,274,3.0,8.0,16,0.00,,,0.00,Wunderground v.1.15,2013-01-22 04:15:00,
2013-01-21 21:25:00,37.6,-4.6,30.01,West,272,4.0,17.0,16,0.00,,,0.00,Wunderground v.1.15,2013-01-22 04:25:00,
2013-01-21 21:30:00,37.6,-4.6,30.02,West,267,4.0,12.0,16,0.00,,,0.00,Wunderground v.1.15,2013-01-22 04:30:00,
2013-01-21 21:40:00,37.9,-7.2,30.02,SSW,195,5.0,5.0,14,0.00,,,0.00,Wunderground v.1.15,2013-01-22 04:40:00,
2013-01-21 21:45:00,37.8,-5.8,30.02,South,188,5.0,6.0,15,0.00,,,0.00,Wunderground v.1.15,2013-01-22 04:45:00,
2013-01-21 21:55:00,37.6,-6.0,30.02,SSE,162,4.0,4.0,15,0.00,,,0.00,Wunderground v.1.15,2013-01-22 04:55:00,
2013-01-21 22:01:00,37.6,-6.0,30.02,ESE,123,3.0,3.0,15,0.00,,,0.00,Wunderground v.1.15,2013-01-22 05:01:00,
2013-01-21 22:05:00,37.5,-6.1,30.02,WNW,288,2.0,8.0,15,0.00,,,0.00,Wunderground v.1.15,2013-01-22 05:05:00,
2013-01-21 22:10:00,37.6,-6.0,30.02,WNW,285,2.0,6.0,15,0.00,,,0.00,Wunderground v.1.15,2013-01-22 05:10:00,
2013-01-21 22:20:00,37.9,-5.7,30.02,WNW,288,4.0,6.0,15,0.00,,,0.00,Wunderground v.1.15,2013-01-22 05:20:00,
2013-01-21 22:30:00,38.2,-6.9,29.99,SE,145,3.0,4.0,14,0.00,,,0.00,Wunderground v.1.15,2013-01-22 05:30:00,
2013-01-21 22:40:00,38.0,-7.1,29.99,SW,229,3.0,7.0,14,0.00,,,0.00,Wunderground v.1.15,2013-01-22 05:40:00,
2013-01-21 22:45:00,38.0,-7.1,29.99,SSE,165,4.0,7.0,14,0.00,,,0.00,Wunderground v.1.15,2013-01-22 05:45:00,
2013-01-21 22:55:00,38.2,-8.4,29.99,SSW,192,2.0,6.0,13,0.00,,,0.00,Wunderground v.1.15,2013-01-22 05:55:00,
2013-01-21 23:00:00,38.2,-8.4,29.99,SSE,150,2.0,2.0,13,0.00,,,0.00,Wunderground v.1.15,2013-01-22 06:00:00,
2013-01-21 23:10:00,38.3,-8.4,29.99,South,181,3.0,6.0,13,0.00,,,0.00,Wunderground v.1.15,2013-01-22 06:10:00,
2013-01-21 23:15:00,38.6,-9.8,29.97,West,260,3.0,6.0,12,0.00,,,0.00,Wunderground v.1.15,2013-01-22 06:15:00,
2013-01-21 23:25:00,38.8,-9.6,29.97,WNW,285,4.0,4.0,12,0.00,,,0.00,Wunderground v.1.15,2013-01-22 06:25:00,
2013-01-21 23:30:00,38.8,-9.6,29.94,WNW,291,4.0,7.0,12,0.00,,,0.00,Wunderground v.1.15,2013-01-22 06:30:00,
2013-01-21 23:40:00,39.2,-11.0,29.94,WNW,285,5.0,5.0,11,0.00,,,0.00,Wunderground v.1.15,2013-01-22 06:40:00,
2013-01-21 23:45:00,39.2,-11.0,29.93,WSW,254,4.0,5.0,11,0.00,,,0.00,Wunderground v.1.15,2013-01-22 06:45:00,
2013-01-21 23:55:00,39.3,-11.0,29.93,NW,315,5.0,14.0,11,0.00,,,0.00,Wunderground v.1.15,2013-01-22 06:55:00,